Location: Dentlein
(49.1477°N, 10.4231°E)
Time: 01:53:30
(UTC+00:00)

Cosmos 1400 Rocket - Pass Details

Date: 23 May 2024
Orbit: 501 x 544 km, 81.2° (Epoch: 13 June)

Event Time Altitude Azimuth Distance (km) Brightness Sun altitude
Exits shadow 00:32:28 31° 247° (WSW) 962 3.7 -18.1°
Maximum altitude 00:33:39 40° 287° (WNW) 815 3.6 -18.1°
Drops below altitude 10° 00:37:27 10° 358° (N) 1,817 6.5 -17.8°
Sets 00:39:43 0° 6° (N) 2,709 7.9 -17.7°
